Other Public Products
Issued by NWS Charleston, SC

Current Version | Previous Version | Text Only | Print | Product List | Glossary Off
Versions: 1 2 3 4 5 6 7 8 9 10 11 12 13 14 15 16 17 18 19 20 21 22 23 24 25 26 27 28 29 30 31 32 33 34 35 36 37 38 39 40 41 42 43 44 45 46 47 48 49 50
000 FPUS82 KCHS 231427 OPUCHS TEST...KCHS/KSAV Gateway Observations...TEST National Weather Service Charleston SC 900 AM EST THU NOV 23 2017 NOTE: "fair" indicates few or no clouds below 12,000 feet with no significant weather and/or obstructions to visibility. SCZ050-WAZ558-NCZ071-TXZ119-213-PAZ071-DCZ001-FLZ074-172-MI076- NYZ176-178-MAZ016-IL014-TNZ027-NJZ106-GAZ044-MD014-231500- ...Gateway Observations for Charleston International... CITY SKY/WX TMP DP RH WIND PRES REMARKS Chas Airport LGT RAIN 47 42 83 NE8 30.08S Seattle CLOUDY 55 52 89 SW9 29.82F Charlotte PTSUNNY 40 27 59 NE8 30.16R WCI 34 Dallas DFW PTCLDY 39 33 79 S5 30.18R WCI 36 Dallas Love PTCLDY 42 33 70 CALM 30.21R Philladelphia MOSUNNY 34 18 52 N10 30.18S WCI 26 Wash National CLOUDY 35 22 58 NW8 30.22R WCI 29 Baltimore MOSUNNY 34 25 69 W5 30.19S WCI 30 Miami PTSUNNY 80 72 76 SE10 29.91S Detroit CLOUDY 31 24 75 S9 30.12S WCI 23 Newark MOSUNNY 35 19 52 NW10 30.13S WCI 27 Laguardia MOSUNNY 36 21 54 NW10 30.12S WCI 28 J F K MOSUNNY 36 21 54 NW9 30.13S WCI 29 Boston Logan MOSUNNY 33 19 56 NW13 30.02F WCI 24 Ft. Lauderdale MOSUNNY 79 72 79 S13 29.90S Chicago O`Hare PTCLDY 33 21 61 S8 30.03R WCI 26 Chicago Midway PTSUNNY 34 23 64 SW7 30.05R WCI 28 Houston Bush MOSUNNY 44 38 79 VRB3 30.22R Houston Hobby MOSUNNY 47 40 76 NE8 30.21R Nashville MOSUNNY 32 26 78 NW3 30.18R Atlanta MOSUNNY 47 33 58 E12 30.07R $$ GAZ044-118-TXZ119-213-NCZ071-DCZ001-MDZ014-506-PAZ021-071-NJZ106- NYZ176-178-MAZ106-OHZ011-021-055-MIZ076-KYZ091-ILZ014-INZ047- MNZ060-ONZ431-231500- ...Gateway Observations for Savannah International... CITY SKY/WX TMP DP RH WIND PRES REMARKS Savannah Arpt LGT RAIN 49 46 90 NE8 30.07R Atlanta MOSUNNY 47 33 58 E12 30.07R Charlotte PTSUNNY 40 27 59 NE8 30.16R WCI 34 Dallas DFW PTCLDY 39 33 79 S5 30.18R WCI 36 Houston Bush MOSUNNY 44 38 79 VRB3 30.22R Wash National CLOUDY 35 22 58 NW8 30.22R WCI 29 Wash Dulles MOSUNNY 33 24 69 NW7 30.20S WCI 27 Baltimore MOSUNNY 34 25 69 W5 30.19S WCI 30 Philadelphia MOSUNNY 34 18 52 N10 30.18S WCI 26 Newark MOSUNNY 35 19 52 NW10 30.13S WCI 27 Laguardia MOSUNNY 36 21 54 NW10 30.12S WCI 28 J F K MOSUNNY 36 21 54 NW9 30.13S WCI 29 Boston MOSUNNY 33 19 56 NW13 30.02F WCI 24 Pittsburg PTSUNNY 27 23 85 CALM 30.13F Akron CLOUDY 29 20 69 SW6 30.14R WCI 23 Cleveland CLOUDY 31 22 69 SW8 30.18R WCI 23 Cincinnati CLOUDY 30 27 88 S5 30.15S WCI 25 Columbus CLOUDY 27 24 90 CALM 30.17R Detroit CLOUDY 31 24 75 S9 30.12S WCI 23 Chicago O`Hare PTCLDY 33 21 61 S8 30.03R WCI 26 Minneapolis CLOUDY 26 19 74 CALM 29.95S Indianapolis CLOUDY 32 25 75 SW8 30.13S WCI 25 Toronto Canada CLOUDY 32 19 59 SW9 30.08S WCI 24 $$

USA.gov is the U.S. government's official web portal to all federal, state and local government web resources and services.